Location: Unspecified
(54.8312°N, 0.0000°E)
Time: 03:30:40
(UTC+00:00)

ISS - Pass Details

Date: 24 November 2019
Orbit: 411 x 421 km, 51.6° (Epoch: 09 December)

Event Time Altitude Azimuth Distance (km) Brightness Sun altitude
Rises 18:59:39 0° 233° (SW) 2,356 0.8 -27.2°
Reaches altitude 10° 19:01:52 10° 223° (SW) 1,497 -0.5 -27.5°
Enters shadow 19:02:09 12° 221° (SW) 1,394 -0.7 -27.5°
